START_TIME,STEP,MOV.,AL01,t_acc.,AL02,t_acc.,E37,t_acc.,H21,t_acc.
1979-03-09 21:00:31.810 ,1,1,0.,24.0,0.,24.0,4.,24.0,0.,24.0
1979-03-09 21:00:55.810 ,0,1,0.,24.0,0.,24.0,9.,24.0,0.,24.0
1979-03-09 21:01:19.810 ,0,1,0.,24.0,0.,24.0,11.,24.0,0.,24.0
1979-03-09 21:01:43.810 ,1,1,0.,24.0,0.,24.0,12.,24.0,0.,24.0
1979-03-09 21:02:07.810 ,2,1,0.,24.0,0.,24.0,11.,24.0,0.,24.0
1979-03-09 21:02:31.810 ,3,1,0.,24.0,0.,24.0,9.,24.0,0.,24.0
1979-03-09 21:02:55.810 ,4,1,0.,24.0,0.,24.0,5.,24.0,0.,24.0
1979-03-09 21:03:19.810 ,5,1,0.,24.0,0.,24.0,7.,24.0,0.,24.0
1979-03-09 21:03:43.810 ,6,1,1.,24.0,0.,24.0,12.,24.0,0.,24.0
1979-03-09 21:04:07.810 ,7,1,0.,24.0,0.,24.0,9.,24.0,0.,24.0
1979-03-09 21:04:31.810 ,7,1,6.,24.0,0.,24.0,10.,24.0,0.,24.0
1979-03-09 21:04:55.810 ,6,1,8.,24.0,0.,24.0,5.,24.0,0.,24.0
1979-03-09 21:05:19.810 ,5,1,0.,24.0,0.,24.0,11.,24.0,0.,24.0
1979-03-09 21:05:43.810 ,4,1,0.,24.0,0.,24.0,8.,24.0,0.,24.0
1979-03-09 21:06:07.810 ,3,1,0.,24.0,0.,24.0,2.,24.0,0.,24.0
1979-03-09 21:06:31.810 ,2,1,0.,24.0,0.,24.0,5.,24.0,0.,24.0
1979-03-09 21:06:55.810 ,1,1,0.,24.0,0.,24.0,7.,24.0,0.,24.0
1979-03-09 21:07:19.810 ,0,1,0.,24.0,0.,24.0,10.,24.0,0.,24.0
1979-03-09 21:07:43.810 ,0,1,0.,24.0,0.,24.0,11.,24.0,0.,24.0
1979-03-09 21:08:07.810 ,1,1,0.,24.0,0.,24.0,8.,24.0,0.,24.0
1979-03-09 21:08:31.810 ,2,1,0.,24.0,0.,24.0,12.,24.0,0.,24.0
1979-03-09 21:08:55.810 ,3,1,0.,24.0,0.,24.0,12.,24.0,0.,24.0
1979-03-09 21:09:19.810 ,4,1,0.,24.0,0.,24.0,8.,24.0,0.,24.0
1979-03-09 21:09:43.810 ,5,1,0.,24.0,0.,24.0,8.,24.0,0.,24.0
1979-03-09 21:10:07.810 ,6,1,0.,24.0,0.,24.0,8.,24.0,0.,24.0
1979-03-09 21:10:31.810 ,7,1,1.,24.0,0.,24.0,9.,24.0,0.,24.0
1979-03-09 21:10:55.810 ,7,1,7.,24.0,0.,24.0,4.,24.0,0.,24.0
1979-03-09 21:11:19.810 ,6,1,10.,24.0,0.,24.0,12.,24.0,0.,24.0
1979-03-09 21:11:43.810 ,5,1,0.,24.0,0.,24.0,7.,24.0,0.,24.0
1979-03-09 21:12:07.810 ,4,1,0.,24.0,0.,24.0,16.,24.0,0.,24.0
1979-03-09 21:12:31.810 ,3,1,0.,24.0,0.,24.0,11.,24.0,0.,24.0
1979-03-09 21:12:55.810 ,2,1,0.,24.0,0.,24.0,8.,24.0,0.,24.0
1979-03-09 21:13:19.810 ,1,1,0.,24.0,0.,24.0,13.,24.0,0.,24.0
1979-03-09 21:13:43.810 ,0,1,0.,24.0,0.,24.0,4.,24.0,0.,24.0
1979-03-09 21:14:07.810 ,0,1,0.,24.0,0.,24.0,6.,24.0,0.,24.0
1979-03-09 21:14:31.810 ,1,1,1.,24.0,0.,24.0,8.,24.0,0.,24.0
1979-03-09 21:14:55.810 ,2,1,0.,24.0,0.,24.0,10.,24.0,0.,24.0
1979-03-09 21:15:19.810 ,3,1,0.,24.0,0.,24.0,6.,24.0,0.,24.0
1979-03-09 21:15:43.810 ,4,1,0.,24.0,0.,24.0,9.,24.0,0.,24.0
1979-03-09 21:16:07.810 ,5,1,0.,24.0,0.,24.0,22.,24.0,0.,24.0
1979-03-09 21:16:31.810 ,6,1,0.,24.0,0.,24.0,19.,24.0,0.,24.0
1979-03-09 21:16:55.810 ,7,1,3.,24.0,0.,24.0,20.,24.0,0.,24.0
1979-03-09 21:17:19.810 ,7,1,8.,24.0,0.,24.0,17.,24.0,0.,24.0
1979-03-09 21:17:43.810 ,6,1,5.,24.0,0.,24.0,21.,24.0,0.,24.0
1979-03-09 21:18:07.810 ,5,1,0.,24.0,0.,24.0,22.,24.0,0.,24.0
1979-03-09 21:18:31.810 ,4,1,1.,24.0,0.,24.0,26.,24.0,0.,24.0
1979-03-09 21:18:55.810 ,3,1,0.,24.0,0.,24.0,21.,24.0,0.,24.0
1979-03-09 21:19:19.810 ,2,1,0.,24.0,0.,24.0,18.,24.0,0.,24.0
1979-03-09 21:19:43.810 ,1,1,0.,24.0,0.,24.0,24.,24.0,0.,24.0
1979-03-09 21:20:07.810 ,0,1,0.,24.0,0.,24.0,23.,24.0,0.,24.0
1979-03-09 21:20:31.810 ,0,1,0.,24.0,0.,24.0,21.,24.0,0.,24.0
1979-03-09 21:20:55.810 ,1,1,0.,24.0,0.,24.0,18.,24.0,0.,24.0
1979-03-09 21:21:19.810 ,2,1,0.,24.0,0.,24.0,34.,24.0,0.,24.0
1979-03-09 21:21:43.810 ,3,1,0.,24.0,0.,24.0,22.,24.0,0.,24.0
1979-03-09 21:22:07.810 ,4,1,0.,24.0,0.,24.0,20.,24.0,0.,24.0
1979-03-09 21:22:31.810 ,5,1,0.,24.0,0.,24.0,35.,24.0,0.,24.0
1979-03-09 21:22:55.810 ,6,1,0.,24.0,0.,24.0,45.,24.0,0.,24.0
1979-03-09 21:23:19.810 ,7,1,1.,24.0,0.,24.0,59.,24.0,0.,24.0
1979-03-09 21:23:43.810 ,7,1,9.,24.0,0.,24.0,74.,24.0,0.,24.0
1979-03-09 21:24:07.810 ,6,1,5.,24.0,0.,24.0,54.,24.0,0.,24.0
1979-03-09 21:24:31.810 ,5,1,0.,24.0,0.,24.0,51.,24.0,0.,24.0
1979-03-09 21:24:55.810 ,4,1,0.,24.0,0.,24.0,68.,24.0,0.,24.0
1979-03-09 21:25:19.810 ,3,1,0.,24.0,0.,24.0,46.,24.0,0.,24.0
1979-03-09 21:25:43.810 ,2,1,0.,24.0,0.,24.0,47.,24.0,0.,24.0
1979-03-09 21:26:07.810 ,1,1,0.,24.0,0.,24.0,59.,24.0,0.,24.0
1979-03-09 21:26:31.810 ,0,1,0.,24.0,0.,24.0,61.,24.0,0.,24.0
1979-03-09 21:26:55.810 ,0,1,0.,24.0,0.,24.0,52.,24.0,0.,24.0
1979-03-09 21:27:19.810 ,1,1,0.,24.0,0.,24.0,62.,24.0,0.,24.0
1979-03-09 21:27:43.810 ,2,1,0.,24.0,0.,24.0,59.,24.0,0.,24.0
1979-03-09 21:28:07.810 ,3,1,1.,24.0,0.,24.0,43.,24.0,0.,24.0
1979-03-09 21:28:31.810 ,4,1,1.,24.0,0.,24.0,43.,24.0,0.,24.0
1979-03-09 21:28:55.810 ,5,1,1.,24.0,0.,24.0,72.,24.0,0.,24.0
1979-03-09 21:29:19.810 ,6,1,0.,24.0,0.,24.0,54.,24.0,0.,24.0
1979-03-09 21:29:43.810 ,7,1,1.,24.0,0.,24.0,44.,24.0,0.,24.0
1979-03-09 21:30:07.810 ,7,1,7.,24.0,0.,24.0,43.,24.0,0.,24.0
1979-03-09 21:30:31.810 ,6,1,4.,24.0,0.,24.0,54.,24.0,0.,24.0
1979-03-09 21:30:55.810 ,5,1,0.,24.0,0.,24.0,52.,24.0,0.,24.0
1979-03-09 21:31:19.810 ,4,1,0.,24.0,0.,24.0,66.,24.0,0.,24.0
1979-03-09 21:31:43.810 ,3,1,1.,24.0,0.,24.0,58.,24.0,0.,24.0
1979-03-09 21:32:07.810 ,2,1,0.,24.0,0.,24.0,49.,24.0,0.,24.0
1979-03-09 21:32:31.810 ,1,1,0.,24.0,0.,24.0,64.,24.0,0.,24.0
1979-03-09 21:32:55.810 ,0,1,0.,24.0,0.,24.0,56.,24.0,0.,24.0
1979-03-09 21:33:19.810 ,0,1,0.,24.0,1.,24.0,60.,24.0,0.,24.0
1979-03-09 21:33:43.810 ,1,1,0.,24.0,0.,24.0,44.,24.0,0.,24.0
1979-03-09 21:34:07.810 ,2,1,0.,24.0,0.,24.0,61.,24.0,0.,24.0
1979-03-09 21:34:31.810 ,3,1,0.,24.0,0.,24.0,37.,24.0,0.,24.0
1979-03-09 21:34:55.810 ,4,1,0.,24.0,0.,24.0,48.,24.0,0.,24.0
1979-03-09 21:35:19.810 ,5,1,0.,24.0,0.,24.0,48.,24.0,0.,24.0
1979-03-09 21:35:43.810 ,6,1,1.,24.0,0.,24.0,60.,24.0,0.,24.0
1979-03-09 21:36:07.810 ,7,1,1.,24.0,0.,24.0,59.,24.0,0.,24.0
1979-03-09 21:36:31.810 ,7,1,8.,24.0,0.,24.0,48.,24.0,0.,24.0
1979-03-09 21:36:55.810 ,6,1,9.,24.0,0.,24.0,57.,24.0,0.,24.0
1979-03-09 21:37:19.810 ,5,1,0.,24.0,0.,24.0,64.,24.0,0.,24.0
1979-03-09 21:37:43.810 ,4,1,0.,24.0,0.,24.0,42.,24.0,0.,24.0
1979-03-09 21:38:07.810 ,3,1,0.,24.0,0.,24.0,52.,24.0,0.,24.0
1979-03-09 21:38:31.810 ,2,1,0.,24.0,0.,24.0,22.,24.0,0.,24.0
1979-03-09 21:38:55.810 ,1,1,0.,24.0,0.,24.0,49.,24.0,0.,24.0
1979-03-09 21:39:19.810 ,0,1,0.,24.0,0.,24.0,43.,24.0,0.,24.0
1979-03-09 21:39:43.810 ,0,1,0.,24.0,0.,24.0,51.,24.0,0.,24.0
1979-03-09 21:40:07.810 ,1,1,0.,24.0,0.,24.0,42.,24.0,0.,24.0
1979-03-09 21:40:31.810 ,2,1,0.,24.0,0.,24.0,34.,24.0,0.,24.0
1979-03-09 21:40:55.810 ,3,1,0.,24.0,0.,24.0,30.,24.0,0.,24.0
1979-03-09 21:41:19.810 ,4,1,0.,24.0,0.,24.0,17.,24.0,0.,24.0
1979-03-09 21:41:43.810 ,5,1,0.,24.0,0.,24.0,22.,24.0,0.,24.0
1979-03-09 21:42:07.810 ,6,1,0.,24.0,0.,24.0,42.,24.0,0.,24.0
1979-03-09 21:42:31.810 ,7,1,4.,24.0,0.,24.0,26.,24.0,0.,24.0
1979-03-09 21:42:55.810 ,7,1,10.,24.0,0.,24.0,30.,24.0,0.,24.0
1979-03-09 21:43:19.810 ,6,1,7.,24.0,0.,24.0,18.,24.0,0.,24.0
1979-03-09 21:43:43.810 ,5,1,0.,24.0,0.,24.0,24.,24.0,0.,24.0
1979-03-09 21:44:07.810 ,4,1,0.,24.0,0.,24.0,24.,24.0,0.,24.0
1979-03-09 21:44:31.810 ,3,1,0.,24.0,0.,24.0,21.,24.0,0.,24.0
1979-03-09 21:44:55.810 ,2,1,0.,24.0,1.,24.0,13.,24.0,0.,24.0
1979-03-09 21:45:19.810 ,1,1,1.,24.0,0.,24.0,28.,24.0,0.,24.0
1979-03-09 21:45:43.810 ,0,1,0.,24.0,0.,24.0,20.,24.0,0.,24.0
1979-03-09 21:46:07.810 ,0,1,0.,24.0,0.,24.0,34.,24.0,0.,24.0
1979-03-09 21:46:31.810 ,1,1,0.,24.0,0.,24.0,17.,24.0,0.,24.0
1979-03-09 21:46:55.810 ,0,0,0.,24.0,0.,24.0,20.,24.0,0.,24.0
1979-03-09 21:47:55.810 ,0,0,,0,,0,,0,,0
1979-03-09 21:48:07.810 ,5,1,0.,24.0,0.,24.0,28.,24.0,0.,24.0
1979-03-09 21:48:31.810 ,6,1,1.,24.0,0.,24.0,29.,24.0,0.,24.0
1979-03-09 21:48:55.810 ,7,1,1.,24.0,0.,24.0,15.,24.0,0.,24.0
1979-03-09 21:49:19.810 ,7,1,5.,24.0,0.,24.0,29.,24.0,0.,24.0
1979-03-09 21:49:43.810 ,6,1,7.,24.0,0.,24.0,26.,24.0,0.,24.0
1979-03-09 21:50:07.810 ,5,1,1.,24.0,0.,24.0,18.,24.0,0.,24.0
1979-03-09 21:50:31.810 ,4,1,0.,24.0,0.,24.0,22.,24.0,0.,24.0
1979-03-09 21:50:55.810 ,3,1,0.,24.0,1.,24.0,11.,24.0,0.,24.0
1979-03-09 21:51:19.810 ,2,1,0.,24.0,0.,24.0,17.,24.0,0.,24.0
1979-03-09 21:51:43.810 ,1,1,0.,24.0,0.,24.0,19.,24.0,0.,24.0
1979-03-09 21:52:07.810 ,0,1,0.,24.0,0.,24.0,16.,24.0,0.,24.0
1979-03-09 21:52:31.810 ,0,1,0.,24.0,0.,24.0,25.,24.0,0.,24.0
1979-03-09 21:52:55.810 ,1,1,0.,24.0,0.,24.0,26.,24.0,0.,24.0
1979-03-09 21:53:19.810 ,2,1,0.,24.0,0.,24.0,18.,24.0,0.,24.0
1979-03-09 21:53:43.810 ,3,1,0.,24.0,0.,24.0,26.,24.0,0.,24.0
1979-03-09 21:54:07.810 ,4,1,0.,24.0,0.,24.0,23.,24.0,0.,24.0
1979-03-09 21:54:31.810 ,5,1,0.,24.0,0.,24.0,40.,24.0,0.,24.0
1979-03-09 21:54:55.810 ,6,1,0.,24.0,0.,24.0,27.,24.0,0.,24.0
1979-03-09 21:55:19.810 ,7,1,1.,24.0,0.,24.0,50.,24.0,0.,24.0
1979-03-09 21:55:43.810 ,7,1,11.,24.0,0.,24.0,44.,24.0,0.,24.0
1979-03-09 21:56:07.810 ,6,1,2.,24.0,0.,24.0,33.,24.0,0.,24.0
1979-03-09 21:56:31.810 ,5,1,0.,24.0,0.,24.0,43.,24.0,0.,24.0
1979-03-09 21:56:55.810 ,4,1,1.,24.0,1.,24.0,40.,24.0,0.,24.0
1979-03-09 21:57:19.810 ,3,1,1.,24.0,0.,24.0,27.,24.0,0.,24.0
1979-03-09 21:57:43.810 ,2,1,0.,24.0,0.,24.0,23.,24.0,0.,24.0
1979-03-09 21:58:07.810 ,1,1,0.,24.0,1.,24.0,30.,24.0,0.,24.0
1979-03-09 21:58:31.810 ,0,1,0.,24.0,0.,24.0,32.,24.0,0.,24.0
1979-03-09 21:58:55.810 ,0,1,0.,24.0,0.,24.0,38.,24.0,0.,24.0
1979-03-09 21:59:19.810 ,1,1,0.,24.0,0.,24.0,31.,24.0,0.,24.0
1979-03-09 21:59:43.810 ,2,1,0.,24.0,0.,24.0,31.,24.0,0.,24.0
1979-03-09 22:00:07.810 ,3,1,0.,24.0,0.,24.0,22.,24.0,0.,24.0
1979-03-09 22:00:31.810 ,4,1,0.,24.0,0.,24.0,36.,24.0,0.,24.0
1979-03-09 22:00:55.810 ,5,1,1.,24.0,0.,24.0,34.,24.0,0.,24.0
1979-03-09 22:01:19.810 ,6,1,0.,24.0,0.,24.0,50.,24.0,0.,24.0
1979-03-09 22:01:43.810 ,7,1,3.,24.0,0.,24.0,34.,24.0,0.,24.0
1979-03-09 22:02:07.810 ,7,1,14.,24.0,0.,24.0,27.,24.0,0.,24.0
1979-03-09 22:02:31.810 ,6,1,13.,24.0,0.,24.0,33.,24.0,0.,24.0
1979-03-09 22:02:55.810 ,5,1,0.,24.0,0.,24.0,33.,24.0,0.,24.0
1979-03-09 22:03:19.810 ,4,1,1.,24.0,0.,24.0,40.,24.0,0.,24.0
1979-03-09 22:03:43.810 ,3,1,1.,24.0,0.,24.0,23.,24.0,0.,24.0
1979-03-09 22:04:07.810 ,2,1,0.,24.0,0.,24.0,26.,24.0,0.,24.0
1979-03-09 22:04:31.810 ,1,1,0.,24.0,0.,24.0,30.,24.0,0.,24.0
1979-03-09 22:04:55.810 ,0,1,0.,24.0,0.,24.0,42.,24.0,0.,24.0
1979-03-09 22:05:19.810 ,0,1,0.,24.0,0.,24.0,37.,24.0,0.,24.0
1979-03-09 22:05:43.810 ,1,1,0.,24.0,0.,24.0,46.,24.0,0.,24.0
1979-03-09 22:06:07.810 ,2,1,0.,24.0,0.,24.0,41.,24.0,0.,24.0
1979-03-09 22:06:31.810 ,3,1,0.,24.0,0.,24.0,36.,24.0,0.,24.0
1979-03-09 22:06:55.810 ,4,1,0.,24.0,0.,24.0,35.,24.0,0.,24.0
1979-03-09 22:07:19.810 ,5,1,0.,24.0,0.,24.0,40.,24.0,0.,24.0
1979-03-09 22:07:43.810 ,6,1,0.,24.0,0.,24.0,37.,24.0,0.,24.0
1979-03-09 22:08:07.810 ,7,1,2.,24.0,0.,24.0,38.,24.0,0.,24.0
1979-03-09 22:08:31.810 ,7,1,2.,24.0,0.,24.0,53.,24.0,0.,24.0
1979-03-09 22:08:55.810 ,6,1,6.,24.0,0.,24.0,34.,24.0,0.,24.0
1979-03-09 22:09:19.810 ,5,1,0.,24.0,0.,24.0,45.,24.0,0.,24.0
1979-03-09 22:09:43.810 ,4,1,1.,24.0,0.,24.0,44.,24.0,0.,24.0
1979-03-09 22:10:07.810 ,3,1,0.,24.0,0.,24.0,49.,24.0,0.,24.0
1979-03-09 22:10:31.810 ,2,1,0.,24.0,0.,24.0,28.,24.0,0.,24.0
1979-03-09 22:10:55.810 ,1,1,0.,24.0,0.,24.0,41.,24.0,0.,24.0
1979-03-09 22:11:19.810 ,0,1,0.,24.0,0.,24.0,41.,24.0,0.,24.0
1979-03-09 22:11:43.810 ,0,1,0.,24.0,0.,24.0,44.,24.0,0.,24.0
1979-03-09 22:12:07.810 ,1,1,1.,24.0,0.,24.0,49.,24.0,0.,24.0
1979-03-09 22:12:31.810 ,2,1,0.,24.0,0.,24.0,37.,24.0,0.,24.0
1979-03-09 22:12:55.810 ,3,1,0.,24.0,0.,24.0,27.,24.0,0.,24.0
1979-03-09 22:13:19.810 ,4,1,1.,24.0,0.,24.0,41.,24.0,0.,24.0
1979-03-09 22:13:43.810 ,5,1,0.,24.0,0.,24.0,39.,24.0,0.,24.0
1979-03-09 22:14:07.810 ,6,1,1.,24.0,0.,24.0,36.,24.0,0.,24.0
1979-03-09 22:14:31.810 ,7,1,1.,24.0,0.,24.0,33.,24.0,0.,24.0
1979-03-09 22:14:55.810 ,7,1,6.,24.0,0.,24.0,29.,24.0,0.,24.0
1979-03-09 22:15:19.810 ,6,1,8.,24.0,0.,24.0,38.,24.0,0.,24.0
1979-03-09 22:15:43.810 ,5,1,0.,24.0,0.,24.0,47.,24.0,0.,24.0
1979-03-09 22:16:07.810 ,4,1,1.,24.0,0.,24.0,41.,24.0,0.,24.0
1979-03-09 22:16:31.810 ,3,1,0.,24.0,0.,24.0,48.,24.0,0.,24.0
1979-03-09 22:16:55.810 ,2,1,0.,24.0,0.,24.0,38.,24.0,0.,24.0
1979-03-09 22:17:19.810 ,1,1,0.,24.0,1.,24.0,30.,24.0,0.,24.0
1979-03-09 22:17:43.810 ,0,1,0.,24.0,0.,24.0,42.,24.0,0.,24.0
1979-03-09 22:18:07.810 ,0,1,0.,24.0,0.,24.0,32.,24.0,0.,24.0
1979-03-09 22:18:31.810 ,1,1,0.,24.0,0.,24.0,41.,24.0,0.,24.0
1979-03-09 22:18:55.810 ,2,1,1.,24.0,0.,24.0,31.,24.0,0.,24.0
1979-03-09 22:19:19.810 ,3,1,0.,24.0,0.,24.0,39.,24.0,0.,24.0
1979-03-09 22:19:43.810 ,4,1,1.,24.0,0.,24.0,34.,24.0,0.,24.0
1979-03-09 22:20:07.810 ,5,1,0.,24.0,0.,24.0,44.,24.0,0.,24.0
1979-03-09 22:20:31.810 ,6,1,0.,24.0,0.,24.0,33.,24.0,0.,24.0
1979-03-09 22:20:55.810 ,7,1,1.,24.0,0.,24.0,25.,24.0,0.,24.0
1979-03-09 22:21:19.810 ,7,1,12.,24.0,0.,24.0,35.,24.0,0.,24.0
1979-03-09 22:21:43.810 ,6,1,6.,24.0,0.,24.0,39.,24.0,0.,24.0
1979-03-09 22:22:07.810 ,5,1,0.,24.0,0.,24.0,53.,24.0,0.,24.0
1979-03-09 22:22:31.810 ,4,1,0.,24.0,0.,24.0,37.,24.0,0.,24.0
1979-03-09 22:22:55.810 ,3,1,0.,24.0,0.,24.0,25.,24.0,0.,24.0
1979-03-09 22:23:19.810 ,2,1,0.,24.0,0.,24.0,28.,24.0,0.,24.0
1979-03-09 22:23:43.810 ,1,1,0.,24.0,0.,24.0,34.,24.0,0.,24.0
1979-03-09 22:24:07.810 ,0,1,0.,24.0,0.,24.0,37.,24.0,0.,24.0
1979-03-09 22:24:31.810 ,0,1,0.,24.0,1.,24.0,37.,24.0,0.,24.0
1979-03-09 22:24:55.810 ,1,1,0.,24.0,0.,24.0,46.,24.0,0.,24.0
1979-03-09 22:25:19.810 ,2,1,0.,24.0,0.,24.0,36.,24.0,0.,24.0
1979-03-09 22:25:43.810 ,3,1,0.,24.0,0.,24.0,23.,24.0,0.,24.0
1979-03-09 22:26:07.810 ,4,1,0.,24.0,0.,24.0,34.,24.0,0.,24.0
1979-03-09 22:26:31.810 ,5,1,0.,24.0,0.,24.0,35.,24.0,0.,24.0
1979-03-09 22:26:55.810 ,6,1,0.,24.0,0.,24.0,33.,24.0,0.,24.0
1979-03-09 22:27:19.810 ,7,1,2.,24.0,0.,24.0,30.,24.0,0.,24.0
1979-03-09 22:27:43.810 ,7,1,7.,24.0,0.,24.0,34.,24.0,0.,24.0
1979-03-09 22:28:07.810 ,6,1,10.,24.0,0.,24.0,35.,24.0,0.,24.0
1979-03-09 22:28:31.810 ,5,1,0.,24.0,0.,24.0,34.,24.0,0.,24.0
1979-03-09 22:28:55.810 ,4,1,1.,24.0,0.,24.0,25.,24.0,0.,24.0
1979-03-09 22:29:19.810 ,3,1,0.,24.0,0.,24.0,36.,24.0,0.,24.0
1979-03-09 22:29:43.810 ,2,1,0.,24.0,0.,24.0,23.,24.0,0.,24.0
1979-03-09 22:30:07.810 ,1,1,0.,24.0,0.,24.0,40.,24.0,0.,24.0
1979-03-09 22:30:31.810 ,0,1,1.,24.0,0.,24.0,31.,24.0,0.,24.0
1979-03-09 22:30:55.810 ,0,1,0.,24.0,0.,24.0,37.,24.0,0.,24.0
1979-03-09 22:31:19.810 ,1,1,0.,24.0,0.,24.0,42.,24.0,0.,24.0
1979-03-09 22:31:43.810 ,2,1,0.,24.0,0.,24.0,25.,24.0,0.,24.0
1979-03-09 22:32:07.810 ,3,1,0.,24.0,0.,24.0,31.,24.0,0.,24.0
1979-03-09 22:32:31.810 ,4,1,0.,24.0,0.,24.0,26.,24.0,0.,24.0
1979-03-09 22:32:55.810 ,5,1,1.,24.0,0.,24.0,39.,24.0,0.,24.0
1979-03-09 22:33:19.810 ,6,1,0.,24.0,0.,24.0,37.,24.0,0.,24.0
1979-03-09 22:33:43.810 ,7,1,3.,24.0,0.,24.0,39.,24.0,0.,24.0
1979-03-09 22:34:07.810 ,7,1,12.,24.0,0.,24.0,29.,24.0,0.,24.0
1979-03-09 22:34:31.810 ,6,1,8.,24.0,0.,24.0,31.,24.0,0.,24.0
1979-03-09 22:34:55.810 ,5,1,0.,24.0,0.,24.0,34.,24.0,0.,24.0
1979-03-09 22:35:19.810 ,4,1,0.,24.0,0.,24.0,40.,24.0,0.,24.0
1979-03-09 22:35:43.810 ,3,1,0.,24.0,0.,24.0,27.,24.0,0.,24.0
1979-03-09 22:36:07.810 ,2,1,0.,24.0,0.,24.0,25.,24.0,0.,24.0
1979-03-09 22:36:31.810 ,1,1,0.,24.0,0.,24.0,41.,24.0,0.,24.0
1979-03-09 22:36:55.810 ,0,1,1.,24.0,0.,24.0,29.,24.0,0.,24.0
1979-03-09 22:37:19.810 ,0,1,0.,24.0,0.,24.0,41.,24.0,0.,24.0
1979-03-09 22:37:43.810 ,1,1,0.,24.0,0.,24.0,37.,24.0,0.,24.0
1979-03-09 22:38:07.810 ,2,1,0.,24.0,0.,24.0,25.,24.0,0.,24.0
1979-03-09 22:38:31.810 ,3,1,0.,24.0,0.,24.0,37.,24.0,0.,24.0
1979-03-09 22:38:55.810 ,4,1,0.,24.0,0.,24.0,27.,24.0,0.,24.0
1979-03-09 22:39:19.810 ,6,1,0.,24.0,0.,24.0,33.,24.0,0.,24.0
1979-03-09 22:39:43.810 ,5,1,2.,24.0,0.,24.0,36.,24.0,0.,24.0
1979-03-09 22:40:07.810 ,1,1,0.,24.0,0.,24.0,36.,24.0,0.,24.0
1979-03-09 22:40:31.810 ,2,1,0.,24.0,0.,24.0,32.,24.0,0.,24.0
1979-03-09 22:40:55.810 ,6,1,0.,24.0,0.,24.0,45.,24.0,0.,24.0
1979-03-09 22:41:19.810 ,5,1,2.,24.0,0.,24.0,40.,24.0,0.,24.0
1979-03-09 22:41:43.810 ,1,1,0.,24.0,0.,24.0,33.,24.0,0.,24.0
1979-03-09 22:42:07.810 ,2,1,0.,24.0,0.,24.0,34.,24.0,0.,24.0
1979-03-09 22:42:31.810 ,6,1,0.,24.0,0.,24.0,26.,24.0,0.,24.0
1979-03-09 22:42:55.810 ,5,1,8.,24.0,0.,24.0,18.,24.0,0.,24.0
1979-03-09 22:43:19.810 ,1,1,0.,24.0,0.,24.0,26.,24.0,0.,24.0
1979-03-09 22:43:43.810 ,2,1,0.,24.0,0.,24.0,19.,24.0,0.,24.0
1979-03-09 22:44:07.810 ,6,1,0.,24.0,0.,24.0,25.,24.0,0.,24.0
1979-03-09 22:44:31.810 ,5,1,3.,24.0,0.,24.0,22.,24.0,0.,24.0
1979-03-09 22:44:55.810 ,1,1,0.,24.0,0.,24.0,16.,24.0,0.,24.0
1979-03-09 22:45:19.810 ,2,1,0.,24.0,0.,24.0,18.,24.0,0.,24.0
1979-03-09 22:45:43.810 ,6,1,0.,24.0,0.,24.0,16.,24.0,0.,24.0
1979-03-09 22:46:07.810 ,5,1,3.,24.0,0.,24.0,22.,24.0,0.,24.0
1979-03-09 22:46:31.810 ,1,1,0.,24.0,0.,24.0,20.,24.0,0.,24.0
1979-03-09 22:46:55.810 ,2,1,0.,24.0,1.,24.0,27.,24.0,0.,24.0
1979-03-09 22:47:19.810 ,6,1,0.,24.0,1.,24.0,23.,24.0,0.,24.0
1979-03-09 22:47:43.810 ,5,1,1.,24.0,0.,24.0,28.,24.0,0.,24.0
1979-03-09 22:48:07.810 ,1,1,0.,24.0,0.,24.0,28.,24.0,0.,24.0
1979-03-09 22:48:31.810 ,2,1,0.,24.0,0.,24.0,26.,24.0,0.,24.0
1979-03-09 22:48:55.810 ,6,1,0.,24.0,0.,24.0,31.,24.0,0.,24.0
1979-03-09 22:49:19.810 ,5,1,5.,24.0,0.,24.0,27.,24.0,0.,24.0
1979-03-09 22:49:43.810 ,1,1,0.,24.0,1.,24.0,27.,24.0,0.,24.0
1979-03-09 22:50:07.810 ,2,1,0.,24.0,0.,24.0,27.,24.0,0.,24.0
1979-03-09 22:50:31.810 ,6,1,1.,24.0,0.,24.0,29.,24.0,0.,24.0
1979-03-09 22:50:55.810 ,5,1,7.,24.0,0.,24.0,26.,24.0,0.,24.0
1979-03-09 22:51:19.810 ,1,1,0.,24.0,0.,24.0,28.,24.0,0.,24.0
1979-03-09 22:51:43.810 ,2,1,0.,24.0,0.,24.0,23.,24.0,0.,24.0
1979-03-09 22:52:07.810 ,6,1,0.,24.0,0.,24.0,24.,24.0,0.,24.0
1979-03-09 22:52:31.810 ,5,1,4.,24.0,0.,24.0,25.,24.0,0.,24.0
1979-03-09 22:52:55.810 ,1,1,0.,24.0,0.,24.0,24.,24.0,0.,24.0
1979-03-09 22:53:19.810 ,2,1,0.,24.0,0.,24.0,27.,24.0,0.,24.0
1979-03-09 22:53:43.810 ,6,1,0.,24.0,0.,24.0,21.,24.0,0.,24.0
1979-03-09 22:54:07.810 ,5,1,6.,24.0,0.,24.0,23.,24.0,0.,24.0
1979-03-09 22:54:31.810 ,1,1,0.,24.0,0.,24.0,22.,24.0,0.,24.0
1979-03-09 22:54:55.810 ,2,1,0.,24.0,0.,24.0,18.,24.0,0.,24.0
1979-03-09 22:55:19.810 ,6,1,0.,24.0,0.,24.0,18.,24.0,0.,24.0
1979-03-09 22:55:43.810 ,5,1,5.,24.0,0.,24.0,34.,24.0,0.,24.0
1979-03-09 22:56:07.810 ,1,1,0.,24.0,0.,24.0,27.,24.0,0.,24.0
1979-03-09 22:56:31.810 ,2,1,0.,24.0,0.,24.0,39.,24.0,0.,24.0
1979-03-09 22:56:55.810 ,6,1,0.,24.0,0.,24.0,25.,24.0,0.,24.0
1979-03-09 22:57:19.810 ,5,1,9.,24.0,0.,24.0,21.,24.0,0.,24.0
1979-03-09 22:57:43.810 ,1,1,0.,24.0,0.,24.0,15.,24.0,0.,24.0
1979-03-09 22:58:07.810 ,2,1,0.,24.0,0.,24.0,20.,24.0,0.,24.0
1979-03-09 22:58:31.810 ,6,1,0.,24.0,0.,24.0,17.,24.0,0.,24.0
1979-03-09 22:58:55.810 ,5,1,3.,24.0,0.,24.0,34.,24.0,0.,24.0
1979-03-09 22:59:19.810 ,1,1,0.,24.0,0.,24.0,20.,24.0,0.,24.0
1979-03-09 22:59:43.810 ,2,1,0.,24.0,0.,24.0,24.,24.0,0.,24.0
1979-03-09 23:00:07.810 ,6,1,1.,24.0,0.,24.0,30.,24.0,0.,24.0
1979-03-09 23:00:31.810 ,5,1,6.,24.0,0.,24.0,24.,24.0,0.,24.0
1979-03-09 23:00:55.810 ,1,1,0.,24.0,0.,24.0,14.,24.0,0.,24.0
1979-03-09 23:01:19.810 ,2,1,1.,24.0,0.,24.0,21.,24.0,0.,24.0
1979-03-09 23:01:43.810 ,6,1,1.,24.0,0.,24.0,24.,24.0,0.,24.0
1979-03-09 23:02:07.810 ,5,1,4.,24.0,0.,24.0,29.,24.0,0.,24.0
1979-03-09 23:02:31.810 ,1,1,0.,24.0,0.,24.0,18.,24.0,0.,24.0
1979-03-09 23:02:55.810 ,2,1,0.,24.0,0.,24.0,18.,24.0,0.,24.0
1979-03-09 23:03:19.810 ,6,1,1.,24.0,1.,24.0,18.,24.0,0.,24.0
1979-03-09 23:03:43.810 ,5,1,3.,24.0,0.,24.0,35.,24.0,0.,24.0
1979-03-09 23:04:07.810 ,1,1,0.,24.0,0.,24.0,23.,24.0,0.,24.0
1979-03-09 23:04:31.810 ,2,1,0.,24.0,0.,24.0,17.,24.0,0.,24.0
1979-03-09 23:04:55.810 ,6,1,0.,24.0,0.,24.0,22.,24.0,0.,24.0
1979-03-09 23:05:19.810 ,5,1,11.,24.0,0.,24.0,18.,24.0,0.,24.0
1979-03-09 23:05:43.810 ,1,1,0.,24.0,0.,24.0,22.,24.0,0.,24.0
1979-03-09 23:06:07.810 ,2,1,0.,24.0,0.,24.0,18.,24.0,0.,24.0
1979-03-09 23:06:31.810 ,6,1,0.,24.0,0.,24.0,24.,24.0,0.,24.0
1979-03-09 23:06:55.810 ,5,1,6.,24.0,0.,24.0,18.,24.0,0.,24.0
1979-03-09 23:07:19.810 ,1,1,0.,24.0,0.,24.0,15.,24.0,0.,24.0
1979-03-09 23:07:43.810 ,2,1,0.,24.0,0.,24.0,20.,24.0,0.,24.0
1979-03-09 23:08:07.810 ,6,1,0.,24.0,1.,24.0,19.,24.0,0.,24.0
1979-03-09 23:08:31.810 ,5,1,3.,24.0,0.,24.0,19.,24.0,0.,24.0
1979-03-09 23:08:55.810 ,1,1,0.,24.0,0.,24.0,15.,24.0,0.,24.0
1979-03-09 23:09:19.810 ,2,1,0.,24.0,0.,24.0,27.,24.0,0.,24.0
1979-03-09 23:09:43.810 ,6,1,1.,24.0,0.,24.0,21.,24.0,0.,24.0
1979-03-09 23:10:07.810 ,5,1,7.,24.0,0.,24.0,19.,24.0,0.,24.0
1979-03-09 23:10:31.810 ,1,1,0.,24.0,0.,24.0,16.,24.0,0.,24.0
1979-03-09 23:10:55.810 ,2,1,0.,24.0,0.,24.0,17.,24.0,0.,24.0
1979-03-09 23:11:19.810 ,6,1,0.,24.0,0.,24.0,25.,24.0,0.,24.0
1979-03-09 23:11:43.810 ,5,1,7.,24.0,0.,24.0,17.,24.0,0.,24.0
1979-03-09 23:12:07.810 ,1,1,0.,24.0,0.,24.0,12.,24.0,0.,24.0
1979-03-09 23:12:31.810 ,2,1,0.,24.0,0.,24.0,13.,24.0,0.,24.0
1979-03-09 23:12:55.810 ,6,1,0.,24.0,0.,24.0,19.,24.0,0.,24.0
1979-03-09 23:13:19.810 ,5,1,3.,24.0,0.,24.0,11.,24.0,0.,24.0
1979-03-09 23:13:43.810 ,1,1,0.,24.0,0.,24.0,8.,24.0,0.,24.0
1979-03-09 23:14:07.810 ,2,1,0.,24.0,0.,24.0,15.,24.0,0.,24.0
1979-03-09 23:14:31.810 ,6,1,0.,24.0,0.,24.0,7.,24.0,0.,24.0
1979-03-09 23:14:55.810 ,5,1,4.,24.0,0.,24.0,11.,24.0,0.,24.0
1979-03-09 23:15:19.810 ,1,1,0.,24.0,0.,24.0,13.,24.0,0.,24.0
1979-03-09 23:15:43.810 ,2,1,0.,24.0,0.,24.0,6.,24.0,0.,24.0
1979-03-09 23:16:07.810 ,6,1,0.,24.0,0.,24.0,7.,24.0,0.,24.0
1979-03-09 23:16:31.810 ,5,1,7.,24.0,0.,24.0,8.,24.0,0.,24.0
1979-03-09 23:16:55.810 ,1,1,0.,24.0,0.,24.0,11.,24.0,0.,24.0
1979-03-09 23:17:19.810 ,2,1,0.,24.0,0.,24.0,5.,24.0,0.,24.0
1979-03-09 23:17:43.810 ,6,1,0.,24.0,0.,24.0,8.,24.0,0.,24.0
1979-03-09 23:18:07.810 ,5,1,2.,24.0,0.,24.0,3.,24.0,0.,24.0
1979-03-09 23:18:31.810 ,1,1,0.,24.0,0.,24.0,11.,24.0,0.,24.0
1979-03-09 23:18:55.810 ,2,1,0.,24.0,0.,24.0,4.,24.0,0.,24.0
1979-03-09 23:19:19.810 ,6,1,0.,24.0,0.,24.0,8.,24.0,0.,24.0
1979-03-09 23:19:43.810 ,5,1,8.,24.0,0.,24.0,6.,24.0,0.,24.0
1979-03-09 23:20:07.810 ,1,1,0.,24.0,0.,24.0,5.,24.0,0.,24.0
1979-03-09 23:20:31.810 ,2,1,0.,24.0,0.,24.0,3.,24.0,0.,24.0
1979-03-09 23:20:55.810 ,6,1,0.,24.0,0.,24.0,5.,24.0,0.,24.0
1979-03-09 23:21:19.810 ,5,1,9.,24.0,0.,24.0,13.,24.0,0.,24.0
1979-03-09 23:21:43.810 ,1,1,0.,24.0,0.,24.0,5.,24.0,0.,24.0
1979-03-09 23:22:07.810 ,2,1,0.,24.0,0.,24.0,6.,24.0,0.,24.0
1979-03-09 23:21:43.810 ,0,0,0.,24.0,0.,24.0,5.,24.0,0.,24.0
1979-03-09 23:22:07.810 ,2,1,0.,24.0,0.,24.0,6.,24.0,0.,24.0
1979-03-09 23:22:31.810 ,6,1,0.,24.0,0.,24.0,7.,24.0,0.,24.0
1979-03-09 23:22:55.810 ,5,1,1.,24.0,0.,24.0,10.,24.0,0.,24.0
1979-03-09 23:23:19.810 ,1,1,0.,24.0,0.,24.0,3.,24.0,0.,24.0
1979-03-09 23:23:43.810 ,2,1,0.,24.0,0.,24.0,6.,24.0,0.,24.0
1979-03-09 23:24:07.810 ,6,1,0.,24.0,0.,24.0,5.,24.0,0.,24.0
1979-03-09 23:24:31.810 ,5,1,4.,24.0,0.,24.0,8.,24.0,0.,24.0
1979-03-09 23:24:55.810 ,1,1,0.,24.0,0.,24.0,8.,24.0,0.,24.0
1979-03-09 23:25:19.810 ,2,1,0.,24.0,0.,24.0,6.,24.0,0.,24.0
1979-03-09 23:25:43.810 ,6,1,0.,24.0,0.,24.0,6.,24.0,0.,24.0
1979-03-09 23:26:07.810 ,5,1,5.,24.0,0.,24.0,5.,24.0,0.,24.0
1979-03-09 23:26:31.810 ,1,1,0.,24.0,0.,24.0,9.,24.0,0.,24.0
1979-03-09 23:26:55.810 ,2,1,0.,24.0,0.,24.0,11.,24.0,0.,24.0
1979-03-09 23:27:19.810 ,6,1,0.,24.0,0.,24.0,5.,24.0,0.,24.0
1979-03-09 23:27:43.810 ,5,1,3.,24.0,0.,24.0,10.,24.0,0.,24.0
1979-03-09 23:28:07.810 ,1,1,0.,24.0,0.,24.0,4.,24.0,0.,24.0
1979-03-09 23:28:31.810 ,2,1,0.,24.0,1.,24.0,9.,24.0,0.,24.0
1979-03-09 23:28:55.810 ,6,1,0.,24.0,0.,24.0,4.,24.0,0.,24.0
1979-03-09 23:29:19.810 ,5,1,6.,24.0,0.,24.0,6.,24.0,0.,24.0
1979-03-09 23:29:43.810 ,1,1,0.,24.0,0.,24.0,4.,24.0,0.,24.0
1979-03-09 23:30:07.810 ,2,1,0.,24.0,0.,24.0,8.,24.0,0.,24.0
1979-03-09 23:30:31.810 ,6,1,0.,24.0,0.,24.0,5.,24.0,0.,24.0
1979-03-09 23:30:55.810 ,5,1,4.,24.0,0.,24.0,3.,24.0,0.,24.0
1979-03-09 23:31:19.810 ,1,1,0.,24.0,0.,24.0,8.,24.0,0.,24.0
1979-03-09 23:31:43.810 ,2,1,0.,24.0,0.,24.0,9.,24.0,0.,24.0
1979-03-09 23:32:07.810 ,6,1,0.,24.0,0.,24.0,8.,24.0,0.,24.0